{"data":{"norad_id":58636,"epoch":"2026-09-19T17:32:44.403936Z","epoch_age_seconds":216177,"freshness":"STALE","line1":"1 58636U 23203U   26262.73106949 -.00000215  00000+0  17132-5 0  9992","line2":"2 58636  43.0042  51.5837 0000967 267.7901  92.2840 15.27575309154465","mean_motion":15.27575309,"eccentricity":9.67e-5,"inclination_deg":43.0042,"raan_deg":51.5837,"arg_perigee_deg":267.7901,"mean_anomaly_deg":92.284,"bstar":1.7132e-6,"rev_number":15446,"period_min":94.267038195496,"perigee_km":482.39966456339,"apogee_km":483.72662067097,"semimajor_km":6861.2001426172,"source":"CELESTRAK","updated_at":"2026-09-21T09:00:33.940755Z"}}